Date,TemperatureHighF,TemperatureAvgF,TemperatureLowF,DewpointHighF,DewpointAvgF,DewpointLowF,HumidityHigh,HumidityAvg,HumidityLow,PressureMaxIn,PressureMinIn,WindSpeedMaxMPH,WindSpeedAvgMPH,GustSpeedMaxMPH,PrecipitationSumIn
2013-1-1,18,8,1,-100,-100,-100,0,0,100,0.00,40.00,0,-999,0,0.00
2013-1-2,13,5,-1,-100,-100,-100,0,0,100,0.00,40.00,0,-999,0,0.00
2013-1-3,35,22,7,-100,-100,-100,0,0,100,0.00,40.00,0,-999,0,0.01
2013-1-4,40,30,21,-100,-100,-100,0,0,100,0.00,40.00,0,-999,0,0.01
2013-1-5,26,18,13,-100,-100,-100,0,0,100,0.00,40.00,0,-999,0,0.00
2013-1-6,35,25,20,-100,-100,-100,0,0,100,0.00,40.00,0,-999,0,0.00
2013-1-7,29,22,18,-100,-100,-100,0,0,100,0.00,40.00,0,-999,0,0.00
2013-1-8,23,20,15,-100,-100,-100,0,0,100,0.00,40.00,0,-999,0,0.00
2013-1-9,38,27,19,-100,-100,-100,0,0,100,0.00,40.00,0,-999,0,0.00
2013-1-10,32,26,21,-100,-100,-100,0,0,100,0.00,40.00,0,-999,0,0.00
2013-1-11,20,4,-11,-100,-100,-100,0,0,100,0.00,40.00,0,-999,0,0.00
2013-1-12,1,-8,-15,-100,-100,-100,0,0,100,0.00,40.00,0,-999,0,0.00
2013-1-13,1,-8,-16,-100,-100,-100,0,0,100,0.00,40.00,0,-999,0,0.00
2013-1-14,-1,-9,-15,-100,-100,-100,0,0,100,0.00,40.00,0,-999,0,0.00
2013-1-15,27,15,2,-100,-100,-100,0,0,100,0.00,40.00,0,-999,0,0.01
2013-1-16,30,23,15,-100,-100,-100,0,0,100,0.00,40.00,0,-999,0,0.01
2013-1-17,33,24,19,-100,-100,-100,0,0,100,0.00,40.00,0,-999,0,0.00
2013-1-18,34,26,20,-100,-100,-100,0,0,100,0.00,40.00,0,-999,0,0.00
2013-1-19,33,24,20,-100,-100,-100,0,0,100,0.00,40.00,0,-999,0,0.00
2013-1-20,27,22,18,-100,-100,-100,0,0,100,0.00,40.00,0,-999,0,0.00
2013-1-21,31,24,19,-100,-100,-100,0,0,100,0.00,40.00,0,-999,0,0.00
2013-1-22,37,30,21,-100,-100,-100,0,0,100,0.00,40.00,0,-999,0,0.00
2013-1-23,42,34,30,-100,-100,-100,0,0,100,0.00,40.00,0,-999,0,0.00
2013-1-24,38,29,22,-100,-100,-100,0,0,100,0.00,40.00,0,-999,0,0.00
2013-1-25,38,28,22,-100,-100,-100,0,0,100,0.00,40.00,0,-999,0,0.00
2013-1-26,40,29,24,-100,-100,-100,0,0,100,0.00,40.00,0,-999,0,0.00
2013-1-27,33,26,19,-100,-100,-100,0,0,100,0.00,40.00,0,-999,0,0.00
2013-1-28,18,12,4,-100,-100,-100,0,0,100,0.00,40.00,0,-999,0,0.00
2013-1-29,14,4,-6,-100,-100,-100,0,0,100,0.00,40.00,0,-999,0,0.00
2013-1-30,19,11,-6,-100,-100,-100,0,0,100,0.00,40.00,0,-999,0,0.01
2013-1-31,21,19,15,-100,-100,-100,0,0,100,0.00,40.00,0,-999,0,0.02